CHINASAT 2C (ZX 2C)

Last updated on Nov. 15, 2019, 4:20 a.m. UTC

1 41021U 15063A   19318.86347201 -.00000311  00000-0  00000+0 0  9991
2 41021   0.0373  39.8791 0003034 294.4610 133.6472  1.00272174 14887
UTC
Height (km)
Latitude
Longitude
Inclination
Orbital Period
UTC large
Height (km)
Speed (km/s)
/
Latitude / Longitude
Inclination (degrees)
Orbital Period (minutes)
Azimuth
Elevation
Range (km)
Doppler Factor
iOS Compass Heading
iOS Angle

Next 30 passes for location: Hong Kong

Rise time Rise Azimuth (degrees) Set time Set Azimuth (degrees) Duration Max altitude (degrees)

No matching passes for this satellites